Location: *
(2.5500°S, 65.9667°W)
Time: 11:59:39
(UTC+00:00)

Daily predictions for brighter satellites

Satellite Brightness Start Highest point End
(mag) Time Altitude Azimuth Time Altitude Azimuth Time Altitude Azimuth
ARIANE 5 R/B 4.1 21:38:10 10° W 21:41:56 83° N 22:07:54 10° E
ARIANE 5 R/B 4.1 21:38:11 10° W 21:41:57 83° N 22:07:54 10° E
Centaur D-1AR AC-39 1.9 22:23:25 10° WNW 22:26:42 69° NNE 22:33:58 10° ESE
BLOCK DM-SL R/B 4.4 22:22:12 10° W 22:27:19 74° N 22:45:44 10° E
Iridium 4 Rocket 3.7 22:26:07 10° N 22:31:31 68° E 22:37:19 10° S
Cosmos 1606 Rocket 4.0 22:31:27 10° SSE 22:35:42 43° E 22:39:55 10° NNE
Cosmos 2123 Rocket 4.0 22:30:24 10° N 22:36:34 62° E 22:42:41 10° SSE
Cosmos 2219 Rocket 2.7 22:31:37 10° SSW 22:37:08 65° WNW 22:42:38 10° N
Cosmos 2056 Rocket 3.5 22:32:01 10° S 22:37:13 71° ESE 22:42:18 10° NNE
Cosmos 1607 4.1 22:34:21 10° NNW 22:40:27 81° WSW 22:46:32 10° SSE
Delta 168 4.1 22:38:08 10° W 22:40:40 22° NNW 22:43:25 10° NNE
ARGOS 4.1 22:36:54 10° SE 22:41:17 25° ENE 22:45:38 10° NNE
Cosmos 2173 Rocket 4.4 22:36:50 10° SSE 22:42:26 38° E 22:48:04 10° NNE
SL-4 R/B 3.1 22:39:33 10° S 22:43:27 31° SE 22:47:23 11° ENE
GPS 2-18 Rocket1 3.8 22:40:47 10° W 22:44:36 46° NNW 22:48:22 10° NE
GPS 2-04 Rocket1 2.7 22:43:11 10° WNW 22:47:01 73° SW 22:50:41 10° SE
Cosmos 1980 4.4 22:43:43 10° SSE 22:48:42 32° ESE 22:53:39 10° NE
Cosmos 2237 Rocket 3.0 22:44:44 10° SSE 22:49:38 30° ESE 22:54:32 10° NE
deb Chang Zheng 4 3.4 22:45:53 10° SSE 22:50:03 64° ENE 22:54:11 10° N
H-2A R/B 2.0 22:46:36 10° NNE 22:50:53 71° ESE 22:55:16 10° S
Cosmos 2084 4.3 22:51:00 10° SW 22:54:54 47° WNW 22:58:43 10° N
Cosmos 2333 Rocket 4.2 22:51:35 10° SW 22:56:23 29° WNW 23:01:11 10° NNW
CZ-4B R/B 3.2 22:53:17 10° SSE 22:58:51 69° ENE 23:04:26 10° N
Delta 142 3.7 22:54:53 10° WNW 23:00:30 88° NNE 23:04:47 11° ESE
Okean O Rocket 1.5 22:58:40 10° SSE 23:02:57 60° ENE 23:07:12 10° N
Intelsat 5-3 Rocket 1.5 23:01:57 10° NW 23:04:16 39° NNE 23:04:45 33° ENE
Cosmos 1726 Rocket 3.5 23:00:22 10° S 23:04:48 83° E 23:09:15 10° N
SWIFT 3.1 23:03:02 10° NW 23:06:50 33° NNE 23:08:33 24° ENE
Cosmos 1242 Rocket 4.5 23:04:34 10° SE 23:05:32 14° ESE 23:05:32 14° ESE
H-2A R/B 2.3 23:02:27 10° S 23:07:42 79° WSW 23:13:03 10° NNW
Cosmos 1437 Rocket 4.0 23:07:05 10° SSE 23:10:15 23° E 23:10:15 23° E
Cosmos 1408 3.1 23:07:59 14° NNE 23:10:32 32° E 23:13:45 10° SSE
NOSS 0 Rocket 3.9 23:06:08 10° SSW 23:12:22 90° SE 23:18:35 10° NNE
Cosmos 1437 2.0 23:10:03 10° S 23:12:36 59° E 23:13:07 45° NE
CZ-4B R/B 1.2 23:13:04 13° NNE 23:15:59 75° ESE 23:19:16 10° S
Cosmos 1892 2.7 23:13:03 10° N 23:16:42 50° E 23:20:21 10° SSE
H-2A R/B 3.0 23:12:38 10° SSE 23:16:48 39° ENE 23:20:52 10° N
Feng Yun 1-1 Rocket 4.4 23:13:15 10° SSE 23:18:25 45° ENE 23:23:39 10° N
Cosmos 724 4.2 23:12:58 10° NNW 23:18:43 89° WSW 23:24:28 10° SSE
CZ-4 R/B 4.4 23:16:24 10° S 23:20:33 87° WSW 23:24:40 10° NNW
Cosmos 2016 Rocket 4.0 23:17:52 10° S 23:24:05 61° E 23:30:12 10° NNE
Cosmos 2263 Rocket 3.4 23:19:27 10° NW 23:24:42 43° WSW 23:30:00 10° S
In-Cosmos 22 Rocket 4.0 23:21:53 10° N 23:27:14 72° E 23:32:43 10° S
Cosmos 44 Rocket 4.1 23:23:02 10° SW 23:27:59 52° WNW 23:33:00 10° N
Cosmos 1602 Rocket 4.0 23:25:43 10° NNW 23:29:57 61° W 23:34:14 10° S
Cosmos 1725 Rocket 4.0 23:24:39 10° S 23:30:51 60° E 23:36:36 12° NNE
Cosmos 1447 Rocket 4.4 23:25:22 10° N 23:31:30 81° E 23:37:46 10° S
Fermi 4.4 23:29:43 10° W 23:33:35 44° NNW 23:34:26 38° N
Ariane 3 Deb 3.8 23:13:57 10° W 23:37:03 70° NNW 23:39:15 39° ENE
Cosmos 2233 Rocket 4.3 23:33:05 10° SSE 23:38:52 40° E 23:39:06 40° E
Spot 2 3.7 23:35:05 10° SSE 23:39:07 86° ENE 23:43:11 10° N
ATLAS 2A CENTAUR R/B 3.6 23:40:46 10° NW 23:42:14 17° NNW 23:42:14 17° NNW
DELTA-4 R/B 4.1 14:32:21 10° W 23:44:01 83° SSE 23:46:29 42° E
Ariane H10 3.8 23:40:10 10° WNW 23:45:07 28° N 23:45:07 28° N
GPS 2-15 Rocket1 3.7 23:43:02 10° NW 23:47:17 44° N 23:47:17 44° N
NOAA 15 4.4 23:44:00 10° SSE 23:49:17 84° ENE 23:54:34 10° N
